Location: Sternwarte ZA, Rosenfeld-Brittheim
(48.2889°N, 8.6789°E)
Time: 06:07:07
(UTC+01:00)

ISS - Pass Details

Date: 26 November 2020
Orbit: 418 x 421 km, 51.6° (Epoch: 26 November)

Event Time Altitude Azimuth Distance (km) Brightness Sun altitude
Rises 18:08:47 0° 256° (WSW) 2,359 2.0 -15.0°
Reaches altitude 10° 18:10:53 10° 259° (W) 1,497 0.4 -15.3°
Maximum altitude 18:14:14 67° 343° (NNW) 459 -3.6 -15.8°
Enters shadow 18:15:21 38° 53° (NE) 662 -3.3 -16.0°
